Big Bear Station Historical Data
Daily Summary for January 31, 2017 Units:  English    Metric   Both
Next Day »
Daily Weekly Monthly Yearly Custom
  High: Low: Average:
Temperature: 53.6 °F 14.2 °F 29.5 °F
Dew Point: 26.1 °F 12.5 °F 18.7 °F
Humidity: 94% 25% 70%
Wind Speed: 4.2mph 0.0mph 0.9mph
Wind Gust: -999.0mph - -
Wind- - WSW
Pressure: 30.27 in 30.19 in -
Precipitation: 0.00 in    
Historical Graphs
 
 
Tabular Data for January 31, 2017
Time Temperature Dew Point Pressure Wind Wind Speed Wind Gust Humidity Rainfall Rate (Hourly)
00:02 22.3 °F 18.2 °F 30.27 in Calm   -999.0 mph 84% 0 in
00:17 21.9 °F 18.1 °F 30.27 in Calm   -999.0 mph 85% 0 in
00:32 21.6 °F 17.8 °F 30.27 in Calm   -999.0 mph 85% 0 in
00:47 21.2 °F 17.1 °F 30.26 in Calm   -999.0 mph 84% 0 in
01:02 20.5 °F 17.2 °F 30.26 in Calm   -999.0 mph 87% 0 in
01:18 21.0 °F 17.7 °F 30.26 in Calm   -999.0 mph 87% 0 in
01:33 20.5 °F 17.0 °F 30.27 in Calm   -999.0 mph 86% 0 in
01:48 19.8 °F 16.6 °F 30.27 in Calm   -999.0 mph 87% 0 in
02:03 19.4 °F 16.7 °F 30.26 in Calm   -999.0 mph 89% 0 in
02:19 18.9 °F 16.2 °F 30.26 in Calm   -999.0 mph 89% 0 in
02:34 19.2 °F 16.0 °F 30.26 in Calm   -999.0 mph 87% 0 in
02:49 19.2 °F 16.5 °F 30.26 in Calm   -999.0 mph 89% 0 in
03:04 18.3 °F 15.6 °F 30.25 in Calm   -999.0 mph 89% 0 in
03:19 17.8 °F 15.4 °F 30.25 in Calm   -999.0 mph 90% 0 in
03:35 17.2 °F 14.8 °F 30.25 in Calm   -999.0 mph 90% 0 in
03:50 17.1 °F 14.9 °F 30.25 in Calm   -999.0 mph 91% 0 in
04:05 16.7 °F 14.5 °F 30.25 in Calm   -999.0 mph 91% 0 in
04:20 17.1 °F 14.9 °F 30.25 in Calm   -999.0 mph 91% 0 in
04:35 16.7 °F 14.5 °F 30.25 in Calm   -999.0 mph 91% 0 in
04:51 16.3 °F 14.1 °F 30.25 in Calm   -999.0 mph 91% 0 in
05:06 16.0 °F 14.3 °F 30.24 in Calm   -999.0 mph 93% 0 in
05:21 16.5 °F 14.6 °F 30.24 in Calm   -999.0 mph 92% 0 in
05:36 15.4 °F 13.5 °F 30.24 in Calm   -999.0 mph 92% 0 in
05:51 14.9 °F 13.0 °F 30.24 in Calm   -999.0 mph 92% 0 in
06:07 15.6 °F 14.2 °F 30.24 in Calm   -999.0 mph 94% 0 in
06:22 14.9 °F 13.0 °F 30.25 in Calm   -999.0 mph 92% 0 in
06:37 14.4 °F 12.5 °F 30.24 in Calm   -999.0 mph 92% 0 in
06:52 14.9 °F 13.5 °F 30.24 in Calm   -999.0 mph 94% 0 in
07:08 14.2 °F 12.5 °F 30.25 in Calm   -999.0 mph 93% 0 in
07:23 14.4 °F 12.5 °F 30.25 in Calm   -999.0 mph 92% 0 in
07:38 15.1 °F 13.7 °F 30.26 in Calm   -999.0 mph 94% 0 in
07:53 15.6 °F 13.4 °F 30.26 in Calm   -999.0 mph 91% 0 in
08:08 16.7 °F 14.5 °F 30.25 in Calm   -999.0 mph 91% 0 in
08:24 16.9 °F 15.0 °F 30.25 in Calm   -999.0 mph 92% 0 in
08:39 18.3 °F 16.4 °F 30.25 in Calm   -999.0 mph 92% 0 in
08:54 19.4 °F 17.5 °F 30.26 in Calm   -999.0 mph 92% 0 in
09:09 21.0 °F 18.8 °F 30.26 in Calm   -999.0 mph 91% 0 in
09:24 22.5 °F 19.5 °F 30.25 in Calm   -999.0 mph 88% 0 in
09:40 24.6 °F 20.7 °F 30.25 in Calm   -999.0 mph 85% 0 in
09:55 28.0 °F 22.9 °F 30.25 in Calm   -999.0 mph 81% 0 in
10:10 34.5 °F 19.6 °F 30.25 in NNW 1.7 mph -999.0 mph 54% 0 in
10:25 43.7 °F 17.1 °F 30.25 in WNW 1.1 mph -999.0 mph 34% 0 in
10:40 43.3 °F 15.4 °F 30.24 in East 2.7 mph -999.0 mph 32% 0 in
10:56 49.8 °F 16.3 °F 30.25 in SE 2.7 mph -999.0 mph 26% 0 in
11:11 50.7 °F 16.1 °F 30.24 in NW 3.2 mph -999.0 mph 25% 0 in
11:26 51.3 °F 17.5 °F 30.24 in South 2.2 mph -999.0 mph 26% 0 in
11:42 53.2 °F 19.2 °F 30.23 in NW 3.7 mph -999.0 mph 26% 0 in
11:57 52.2 °F 20.9 °F 30.22 in NNW 1.1 mph -999.0 mph 29% 0 in
12:12 52.7 °F 22.1 °F 30.22 in NW 2.7 mph -999.0 mph 30% 0 in
12:27 52.9 °F 22.3 °F 30.22 in South 3.2 mph -999.0 mph 30% 0 in
12:42 53.1 °F 23.2 °F 30.21 in NE 2.2 mph -999.0 mph 31% 0 in
12:58 52.5 °F 23.5 °F 30.21 in NW 4.2 mph -999.0 mph 32% 0 in
13:13 53.6 °F 25.2 °F 30.21 in NNW 3.7 mph -999.0 mph 33% 0 in
13:28 50.0 °F 24.7 °F 30.21 in West 3.7 mph -999.0 mph 37% 0 in
13:44 50.4 °F 24.4 °F 30.20 in West 3.7 mph -999.0 mph 36% 0 in
13:59 49.5 °F 24.9 °F 30.20 in WNW 3.2 mph -999.0 mph 38% 0 in
14:14 48.4 °F 25.2 °F 30.20 in NW 1.7 mph -999.0 mph 40% 0 in
14:29 48.7 °F 23.6 °F 30.20 in West 4.2 mph -999.0 mph 37% 0 in
14:45 48.2 °F 23.8 °F 30.20 in West 2.7 mph -999.0 mph 38% 0 in
15:00 46.8 °F 24.9 °F 30.20 in NW 1.7 mph -999.0 mph 42% 0 in
15:16 46.8 °F 26.0 °F 30.20 in NW 1.7 mph -999.0 mph 44% 0 in
15:32 46.8 °F 25.5 °F 30.20 in NW 2.2 mph -999.0 mph 43% 0 in
15:47 46.4 °F 25.7 °F 30.20 in North 2.7 mph -999.0 mph 44% 0 in
16:02 45.9 °F 25.7 °F 30.20 in West 2.7 mph -999.0 mph 45% 0 in
16:17 45.5 °F 25.9 °F 30.20 in West 2.2 mph -999.0 mph 46% 0 in
16:32 44.8 °F 25.8 °F 30.20 in West 2.7 mph -999.0 mph 47% 0 in
16:48 43.2 °F 24.8 °F 30.20 in SSW 2.2 mph -999.0 mph 48% 0 in
17:03 41.0 °F 26.1 °F 30.20 in South 2.7 mph -999.0 mph 55% 0 in
17:19 39.6 °F 24.8 °F 30.19 in South 2.2 mph -999.0 mph 55% 0 in
17:34 37.2 °F 25.0 °F 30.19 in South 1.7 mph -999.0 mph 61% 0 in
17:49 36.0 °F 23.1 °F 30.20 in Calm   -999.0 mph 59% 0 in
18:04 34.2 °F 22.1 °F 30.20 in Calm   -999.0 mph 61% 0 in
18:19 32.7 °F 22.6 °F 30.20 in South 1.7 mph -999.0 mph 66% 0 in
18:35 32.0 °F 19.7 °F 30.20 in Calm   -999.0 mph 60% 0 in
18:50 30.4 °F 21.1 °F 30.20 in Calm   -999.0 mph 68% 0 in
19:06 29.7 °F 20.1 °F 30.20 in Calm   -999.0 mph 67% 0 in
19:21 28.4 °F 20.9 °F 30.21 in Calm   -999.0 mph 73% 0 in
19:37 27.9 °F 21.3 °F 30.21 in Calm   -999.0 mph 76% 0 in
19:52 26.6 °F 19.7 °F 30.21 in Calm   -999.0 mph 75% 0 in
20:07 26.4 °F 21.1 °F 30.21 in South 3.2 mph -999.0 mph 80% 0 in
20:22 25.5 °F 19.6 °F 30.21 in Calm   -999.0 mph 78% 0 in
20:38 25.0 °F 20.3 °F 30.21 in Calm   -999.0 mph 82% 0 in
20:53 24.4 °F 20.3 °F 30.21 in Calm   -999.0 mph 84% 0 in
21:08 24.8 °F 18.6 °F 30.21 in South 2.7 mph -999.0 mph 77% 0 in
21:23 23.5 °F 17.9 °F 30.21 in Calm   -999.0 mph 79% 0 in
21:38 24.1 °F 18.5 °F 30.21 in South 2.2 mph -999.0 mph 79% 0 in
21:54 23.4 °F 17.0 °F 30.20 in Calm   -999.0 mph 76% 0 in
22:09 23.2 °F 16.8 °F 30.20 in Calm   -999.0 mph 76% 0 in
22:24 22.5 °F 15.8 °F 30.20 in Calm   -999.0 mph 75% 0 in
22:39 21.7 °F 13.1 °F 30.20 in Calm   -999.0 mph 69% 0 in
22:54 22.8 °F 15.1 °F 30.20 in Calm   -999.0 mph 72% 0 in
23:10 21.0 °F 15.2 °F 30.20 in Calm   -999.0 mph 78% 0 in
23:25 20.5 °F 16.2 °F 30.20 in Calm   -999.0 mph 83% 0 in
23:40 20.1 °F 14.6 °F 30.20 in Calm   -999.0 mph 79% 0 in
23:55 19.4 °F 14.2 °F 30.20 in Calm   -999.0 mph 80% 0 in
Big Bear CA Weather